Wind_Speed
8 13 12 8 6 5 7 5 6 6 4 6 5 5 6 6 5 3 6 5 5 3 0 2 3 5 9 12 12 11 11 12 11 11 10 10 10 10 9 9 9 9 8 9 8 9 7 7 6
9 12 10 8 8 7 6 5 5 6 5 5 4 4 4 7 6 5 7 6 5 4 1 1 2 4 7 10 11 12 12 13 13 13 12 12 11 10 9 8 8 7 6 6 6 7 7 6 6
10 13 9 6 6 5 4 5 6 6 4 5 5 1 6 8 6 6 7 7 7 5 2 2 3 4 5 6 8 9 10 10 11 11 10 10 9 9 7 7 7 7 5 5 5 5 5 5 6
9 8 7 8 9 7 7 5 5 4 3 4 5 3 7 6 4 4 8 8 8 6 3 2 3 5 6 7 8 9 10 10 10 10 10 9 9 9 8 7 7 7 5 5 5 5 6 6 6
5 4 3 5 6 6 4 4 5 5 3 4 5 6 9 8 4 4 5 7 8 6 5 4 4 5 7 8 10 11 12 12 12 12 12 11 11 11 10 9 8 8 7 6 6 6 7 7 7
2 2 4 4 5 3 2 1 5 6 8 7 8 8 6 4 5 6 4 7 8 7 7 6 6 6 6 8 9 11 12 13 14 14 14 13 14 13 13 11 10 10 9 9 8 8 8 8 8
2 2 3 4 4 4 3 3 5 7 8 8 12 10 3 9 10 10 12 8 7 8 8 8 8 8 8 9 10 11 13 14 15 15 15 14 14 15 15 14 12 12 11 11 11 10 9 9 9
6 4 5 5 6 6 6 7 8 9 11 12 12 11 14 11 13 13 14 13 10 10 10 11 11 10 11 11 12 12 13 14 15 16 17 16 15 15 15 16 15 13 13 13 13 12 11 11 11
7 6 4 6 8 8 8 9 11 14 15 17 19 17 16 15 15 14 13 14 12 12 13 13 13 14 14 14 14 14 14 14 15 16 17 18 16 15 16 17 16 14 14 14 15 14 13 12 12
8 8 6 6 10 9 10 12 16 18 15 15 17 18 20 19 19 18 17 16 16 16 17 16 15 15 15 15 15 17 18 17 16 16 16 17 17 17 17 17 17 16 16 16 15 15 15 14 14
12 10 9 9 11 11 11 12 15 17 17 19 15 12 13 16 20 21 21 20 20 20 20 20 19 20 19 18 18 18 18 19 20 19 19 18 17 17 17 18 18 19 18 18 18 18 18 17 16
12 8 8 8 10 12 14 16 15 17 14 9 11 11 11 13 14 17 20 20 19 19 19 20 21 22 23 23 22 22 22 20 20 21 22 22 20 20 19 19 20 20 20 20 20 21 20 19 19
16 14 14 13 12 13 15 15 15 5 6 5 10 14 18 17 19 20 20 22 24 24 23 22 22 22 22 23 24 22 24 24 22 23 24 24 24 23 22 21 22 22 23 23 23 23 24 23 22
19 19 18 15 12 17 12 8 10 10 8 10 17 20 20 23 25 26 26 26 26 25 26 27 27 27 26 25 24 24 23 25 27 27 26 27 27 27 26 25 24 24 25 25 26 26 26 26 25
16 17 19 19 7 9 12 14 11 11 14 20 23 24 22 21 22 25 26 25 24 23 22 22 23 24 23 23 24 27 28 29 28 30 30 30 30 29 29 29 27 26 28 29 29 29 28 28 28
20 19 16 7 13 13 15 18 13 14 22 24 27 24 20 19 19 19 20 19 17 16 17 17 19 19 19 20 22 25 28 31 33 32 31 32 32 32 32 31 30 29 30 32 32 32 31 31 31
15 13 15 17 16 14 15 20 19 20 23 26 21 19 19 19 19 15 14 14 17 18 18 16 17 18 20 20 20 22 24 26 29 33 35 34 34 34 34 32 32 32 31 33 35 35 35 34 34
13 16 19 21 19 18 21 25 24 21 19 15 17 18 21 24 23 21 18 18 17 14 11 10 9 9 13 16 16 16 17 19 22 26 31 35 35 35 36 36 35 36 36 35 36 37 38 37 38
21 22 23 24 21 25 25 27 14 7 14 20 22 23 25 26 23 21 19 18 17 14 9 7 6 5 6 9 10 11 12 13 15 18 22 26 30 35 38 41 42 41 41 41 43 44 43 40 40
24 25 27 24 19 21 24 18 14 20 18 17 22 26 25 18 16 14 13 14 14 11 10 9 9 9 9 8 8 9 11 13 14 15 17 19 22 25 26 29 32 35 37 40 42 43 45 47 44
26 27 24 22 19 19 18 22 18 18 17 25 19 18 17 14 14 13 13 12 10 11 12 12 12 10 11 12 13 13 13 13 13 14 16 16 16 18 20 23 25 28 29 30 34 38 40 43 44
25 22 22 20 15 9 8 7 12 21 25 19 17 15 14 15 15 14 14 14 14 15 15 16 15 15 15 15 16 18 17 17 16 17 18 19 20 19 20 22 23 22 22 22 25 29 33 37 39
20 12 9 12 14 18 20 15 10 16 19 17 17 16 14 15 17 16 16 17 18 20 19 21 21 19 19 17 18 20 21 20 20 19 19 19 21 22 22 23 23 25 25 24 23 23 26 28 30
11 11 11 15 17 6 19 21 5 15 16 16 15 13 13 17 18 19 18 19 19 21 22 23 19 16 15 16 18 19 23 25 24 23 23 22 22 22 24 26 28 31 33 33 30 29 28 29 30
18 12 3 4 2 6 6 11 21 12 16 11 9 11 15 19 21 20 19 19 21 23 22 20 17 18 23 27 30 34 37 38 37 37 37 36 32 32 34 34 32 32 34 37 37 36 35 35 35
22 22 9 7 3 4 9 10 9 21 19 19 17 17 17 15 16 18 18 20 21 22 23 23 24 28 32 38 44 46 43 41 41 41 41 41 44 45 45 49 48 44 43 44 42 40 42 42 41
17 24 24 17 11 4 11 17 16 16 18 21 17 15 14 14 15 15 17 19 20 22 25 28 33 40 46 49 50 50 49 47 45 42 38 33 35 37 39 40 41 43 42 42 43 47 50 49 51
27 15 10 14 2 5 7 13 17 9 18 22 18 14 15 15 16 17 19 21 24 28 34 39 45 49 50 49 46 44 41 41 42 42 39 37 36 35 37 40 41 42 44 44 43 43 43 43 43
25 26 18 17 22 6 2 10 12 11 16 18 15 15 17 18 19 20 22 26 34 39 44 47 48 46 43 41 40 40 43 43 42 39 39 39 37 37 38 40 42 44 46 46 47 47 48 49 48
31 31 31 25 13 17 16 32 16 12 14 14 19 23 22 20 24 29 36 41 41 38 37 37 37 33 32 35 36 36 33 31 31 33 36 38 39 41 44 45 46 47 48 50 53 54 53 54 54
Wind_Direction
113 121 122 125 112 105 94 98 48 30 44 32 37 65 75 64 54 44 15 359 10 23 1 139 136 164 186 197 202 212 221 230 239 245 250 253 254 257 265 270 275 280 286 289 288 286 283 279 277
119 131 119 110 113 111 98 79 47 29 40 37 32 47 66 33 28 29 34 23 13 16 3 227 194 180 187 204 216 225 233 239 247 249 248 250 254 259 260 262 268 274 280 282 286 287 279 278 284
128 134 118 112 108 88 64 18 360 6 21 37 30 58 23 9 20 54 43 27 13 11 351 284 254 234 222 223 224 230 236 239 244 247 252 254 253 252 254 258 262 273 274 268 267 267 267 265 268
130 153 119 120 115 96 63 30 15 28 52 37 21 39 7 12 24 50 16 19 17 6 351 306 265 254 251 244 245 247 246 247 246 246 247 250 255 257 254 251 253 262 263 269 267 261 259 258 261
115 156 143 157 137 118 56 41 32 10 12 29 15 356 349 345 343 331 339 353 9 357 337 311 281 260 255 256 254 252 253 257 258 257 259 257 253 251 252 251 253 256 264 265 267 268 265 262 259
116 190 174 156 149 156 89 27 345 328 343 353 355 348 339 333 314 306 290 320 340 341 340 316 294 282 271 266 265 266 262 260 260 262 262 259 263 265 262 257 256 257 263 271 271 273 273 272 271
275 249 202 188 187 172 191 257 277 299 332 337 331 334 343 287 292 299 303 303 310 314 314 314 300 282 270 263 263 263 263 265 264 262 263 262 261 266 268 266 261 258 258 265 270 270 271 274 275
284 275 224 215 198 217 242 249 270 283 305 313 315 311 302 266 269 276 280 290 295 305 303 302 299 294 277 267 262 261 261 261 263 265 265 265 261 261 264 268 269 267 266 268 271 272 275 279 281
284 284 249 240 235 238 252 259 285 294 304 309 313 297 285 283 279 270 269 275 278 281 285 286 290 292 290 284 273 268 266 265 265 266 266 266 264 263 263 262 262 264 267 270 274 276 275 276 278
286 282 281 258 249 253 268 281 288 288 293 296 294 295 293 287 279 273 270 266 261 264 266 269 269 275 278 279 281 279 273 268 265 265 265 267 265 265 267 270 272 271 269 268 270 273 275 276 277
284 281 273 269 265 270 278 280 283 292 302 296 302 290 290 279 281 284 283 279 278 277 274 272 270 266 267 272 271 271 271 271 269 266 264 264 262 261 259 262 265 268 269 268 266 266 267 269 272
282 280 269 271 276 281 282 283 284 286 279 282 288 294 301 298 286 280 280 282 282 282 281 277 274 273 272 267 266 267 269 268 266 266 265 264 259 258 256 254 254 256 257 260 263 264 262 263 265
284 283 283 280 285 278 279 286 284 269 300 264 268 303 306 292 281 278 272 273 277 282 282 276 273 271 272 273 269 266 268 267 264 261 261 261 261 260 257 254 254 255 256 256 255 257 261 259 259
284 290 292 293 292 284 274 255 283 282 289 275 294 298 288 281 281 279 278 278 280 282 282 279 276 272 270 268 267 267 266 266 264 262 260 260 259 258 257 256 255 255 256 256 257 255 257 260 262
280 285 287 297 271 273 271 276 288 281 288 295 301 300 294 288 283 284 285 287 288 286 282 280 281 279 272 265 265 266 264 260 259 260 261 261 260 258 257 257 255 254 256 258 259 260 260 259 259
281 287 296 257 286 281 277 283 282 280 292 296 297 295 293 291 291 291 288 291 295 294 289 280 281 280 275 268 267 267 264 263 260 255 255 257 258 258 256 256 256 254 251 256 257 260 262 262 262
273 271 284 289 291 279 277 279 288 292 297 293 288 289 293 298 304 305 304 306 308 307 309 302 292 276 272 275 270 265 267 266 260 258 254 250 250 254 258 260 261 260 257 255 257 257 258 258 260
271 271 275 280 286 278 276 284 292 299 286 284 285 281 289 296 305 308 310 315 315 312 306 309 309 295 279 274 276 277 273 270 271 267 260 258 260 261 261 262 262 263 264 260 261 260 257 256 255
272 270 270 275 280 280 283 292 300 259 275 285 286 281 283 290 294 300 303 313 324 330 324 305 298 291 283 285 288 288 288 281 272 271 272 269 268 266 267 268 267 265 262 261 260 261 261 257 256
261 264 266 277 282 286 290 288 286 287 277 278 275 275 279 285 293 292 296 303 313 302 289 281 293 300 295 283 280 288 290 289 291 288 281 276 273 273 272 271 270 269 268 266 264 262 262 262 259
255 258 266 277 282 284 283 286 282 277 276 288 271 263 271 279 285 288 297 300 273 265 271 280 296 290 289 291 292 296 297 298 297 297 297 296 293 290 286 281 277 277 277 276 273 271 267 264 262
253 262 269 270 269 256 264 280 263 275 278 263 250 260 266 280 279 283 288 288 281 268 265 276 285 284 286 287 289 288 287 286 287 290 291 294 295 292 289 289 288 285 282 280 276 274 275 274 272
254 250 237 249 257 268 267 269 246 250 249 234 248 257 261 272 278 274 275 281 288 287 282 287 288 284 282 281 282 284 284 282 278 277 283 286 287 291 294 294 292 288 285 284 282 282 286 285 280
214 229 255 269 270 263 269 238 245 228 227 243 237 242 256 264 267 263 266 274 277 279 279 279 282 285 290 302 306 306 309 303 298 292 288 291 294 292 292 293 294 295 293 290 286 283 281 282 287
211 222 271 295 229 232 247 220 236 221 210 210 217 243 253 258 257 259 266 274 282 278 278 283 286 292 299 299 302 307 307 301 292 291 290 289 288 294 297 297 296 295 294 292 288 287 286 284 282
220 228 207 224 211 256 220 238 234 226 228 233 233 229 239 252 260 266 271 276 279 282 282 283 285 291 297 304 307 308 303 298 294 292 290 284 280 280 283 289 294 293 287 283 286 288 289 288 285
222 219 236 257 283 296 243 259 253 222 233 247 224 233 236 242 254 269 273 274 273 275 279 283 290 299 302 303 302 301 301 302 304 306 305 296 291 289 285 279 279 280 275 268 266 270 271 274 275
227 233 203 209 282 255 247 255 244 237 238 230 234 222 231 239 255 260 263 267 276 286 291 296 298 299 299 300 300 301 302 303 305 304 301 298 294 286 279 274 273 271 270 269 270 269 269 268 266
227 229 223 227 231 191 254 255 262 239 242 212 218 241 254 261 264 265 271 283 292 293 293 294 295 296 297 298 299 300 302 304 304 301 297 297 295 290 287 284 281 278 278 277 278 278 276 273 271
242 245 243 231 241 232 249 262 254 240 225 234 265 269 261 268 287 289 290 291 293 295 298 301 303 303 298 300 303 304 303 300 292 286 290 292 291 291 291 290 288 286 284 282 281 280 279 278 276
Height
3172 3173 3173 3174 3179 3177 3176 3178 3178 3178 3177 3177 3176 3176 3177 3176 3176 3179 3176 3175 3174 3173 3173 3173 3173 3173 3175 3176 3177 3179 3180 3181 3181 3182 3182 3182 3182 3182 3182 3182 3182 3182 3181 3181 3181 3181 3180 3181 3181
3173 3174 3175 3175 3178 3176 3177 3178 3178 3178 3178 3177 3177 3177 3177 3177 3176 3176 3176 3175 3175 3175 3174 3174 3174 3174 3175 3176 3176 3178 3179 3179 3180 3180 3181 3181 3181 3181 3181 3181 3181 3181 3181 3181 3180 3180 3180 3180 3180
3175 3175 3177 3176 3177 3177 3178 3178 3178 3178 3178 3178 3178 3177 3177 3177 3176 3176 3176 3176 3175 3175 3175 3175 3175 3175 3175 3176 3176 3176 3177 3178 3179 3179 3180 3180 3180 3180 3180 3180 3181 3180 3181 3180 3180 3180 3180 3179 3179
3175 3177 3178 3177 3177 3177 3178 3178 3178 3178 3178 3178 3177 3178 3178 3177 3176 3176 3176 3176 3175 3175 3175 3175 3175 3176 3176 3176 3176 3177 3177 3178 3178 3178 3179 3179 3179 3179 3179 3179 3180 3180 3180 3180 3179 3180 3179 3179 3179
3177 3176 3176 3176 3177 3177 3178 3178 3178 3178 3179 3179 3178 3178 3177 3176 3176 3176 3176 3175 3175 3174 3174 3174 3175 3175 3175 3176 3176 3176 3177 3177 3178 3178 3179 3179 3179 3179 3179 3179 3180 3180 3179 3179 3179 3179 3179 3179 3179
3176 3176 3176 3176 3176 3177 3178 3178 3178 3178 3178 3178 3178 3178 3177 3176 3175 3174 3174 3174 3174 3174 3173 3173 3173 3174 3175 3175 3175 3176 3176 3176 3176 3177 3177 3177 3178 3178 3178 3179 3179 3180 3180 3180 3179 3179 3179 3179 3179
3176 3176 3176 3176 3176 3176 3177 3177 3177 3177 3177 3177 3177 3176 3177 3175 3174 3174 3173 3172 3172 3172 3172 3171 3171 3172 3172 3173 3173 3173 3174 3174 3175 3175 3175 3176 3177 3177 3177 3177 3178 3178 3179 3179 3178 3178 3178 3178 3178
3175 3176 3176 3175 3176 3176 3176 3176 3176 3176 3176 3176 3175 3174 3173 3172 3172 3171 3170 3170 3171 3171 3171 3171 3170 3170 3170 3170 3171 3171 3171 3172 3172 3173 3173 3174 3175 3175 3175 3175 3176 3176 3177 3177 3177 3177 3177 3177 3177
3174 3175 3174 3175 3174 3175 3175 3175 3175 3174 3175 3174 3172 3171 3170 3169 3169 3168 3168 3168 3168 3169 3168 3168 3168 3169 3169 3169 3169 3169 3169 3169 3170 3170 3171 3171 3172 3173 3173 3173 3173 3173 3174 3175 3175 3175 3175 3175 3175
3173 3173 3173 3173 3173 3174 3174 3174 3173 3172 3173 3172 3170 3168 3166 3166 3165 3164 3164 3165 3164 3164 3164 3164 3164 3165 3165 3166 3167 3167 3167 3167 3167 3167 3168 3169 3170 3171 3171 3171 3171 3172 3171 3171 3171 3172 3172 3173 3173
3170 3171 3171 3171 3171 3171 3172 3171 3170 3169 3169 3167 3167 3165 3163 3162 3161 3161 3161 3161 3161 3161 3161 3161 3162 3161 3161 3162 3163 3163 3164 3164 3165 3165 3165 3165 3166 3167 3168 3168 3169 3169 3169 3169 3168 3168 3168 3169 3169
3168 3168 3169 3169 3169 3169 3168 3168 3167 3167 3166 3166 3163 3162 3161 3160 3159 3159 3158 3157 3157 3157 3157 3157 3158 3158 3159 3158 3159 3159 3160 3160 3161 3161 3161 3162 3162 3163 3164 3164 3164 3165 3165 3165 3165 3165 3165 3165 3165
3164 3166 3166 3166 3166 3165 3165 3165 3163 3164 3164 3162 3161 3160 3159 3158 3157 3156 3155 3155 3154 3153 3153 3154 3153 3154 3154 3154 3155 3154 3155 3155 3156 3156 3156 3156 3157 3158 3159 3159 3160 3160 3160 3161 3160 3160 3161 3161 3161
3161 3161 3161 3161 3162 3161 3161 3161 3161 3162 3162 3159 3158 3156 3156 3154 3152 3151 3150 3150 3150 3149 3148 3147 3147 3148 3149 3149 3150 3150 3149 3150 3150 3150 3150 3150 3151 3152 3153 3153 3155 3155 3155 3154 3155 3154 3155 3156 3156
3157 3157 3157 3157 3156 3157 3157 3158 3159 3159 3157 3155 3152 3151 3150 3149 3148 3146 3145 3144 3144 3143 3143 3142 3141 3141 3142 3143 3143 3144 3144 3144 3144 3144 3145 3145 3145 3146 3147 3147 3148 3149 3148 3148 3149 3149 3149 3149 3150
3154 3154 3154 3154 3154 3154 3154 3155 3156 3156 3152 3150 3147 3145 3144 3143 3143 3142 3140 3140 3139 3138 3138 3137 3136 3135 3136 3137 3138 3137 3137 3137 3138 3138 3138 3139 3139 3139 3140 3140 3141 3142 3142 3141 3141 3142 3143 3143 3144
3151 3151 3151 3152 3150 3150 3150 3148 3151 3151 3148 3144 3142 3140 3139 3139 3138 3138 3138 3137 3135 3134 3133 3132 3131 3130 3130 3130 3131 3130 3130 3130 3130 3131 3132 3131 3132 3132 3133 3134 3134 3134 3135 3134 3134 3134 3134 3135 3135
3148 3147 3147 3147 3147 3145 3145 3143 3145 3146 3140 3139 3138 3136 3135 3134 3133 3134 3134 3134 3132 3130 3129 3128 3127 3127 3127 3126 3125 3126 3125 3125 3125 3125 3125 3125 3127 3128 3127 3127 3127 3127 3127 3127 3127 3126 3125 3125 3125
3143 3142 3142 3143 3145 3140 3140 3138 3139 3140 3137 3135 3134 3133 3132 3131 3130 3130 3129 3128 3128 3128 3128 3128 3126 3125 3124 3124 3124 3124 3123 3121 3120 3119 3119 3119 3120 3120 3120 3120 3119 3118 3118 3118 3118 3117 3116 3116 3116
3138 3137 3136 3138 3139 3136 3134 3134 3134 3132 3132 3131 3130 3128 3127 3127 3126 3126 3127 3127 3127 3125 3124 3124 3125 3125 3124 3123 3121 3121 3120 3119 3117 3116 3114 3114 3113 3112 3112 3111 3110 3110 3109 3109 3107 3107 3106 3106 3107
3132 3131 3133 3134 3133 3131 3130 3128 3128 3127 3126 3124 3123 3123 3124 3124 3123 3123 3123 3122 3123 3123 3123 3124 3123 3123 3122 3122 3121 3120 3118 3116 3115 3113 3112 3111 3110 3108 3107 3105 3104 3103 3102 3101 3100 3099 3097 3096 3096
3127 3129 3129 3129 3130 3128 3127 3122 3122 3120 3119 3118 3118 3119 3120 3120 3121 3121 3121 3120 3120 3120 3120 3120 3121 3120 3119 3120 3119 3117 3116 3114 3113 3110 3109 3107 3105 3104 3103 3101 3100 3097 3095 3094 3092 3091 3090 3089 3089
3124 3125 3126 3126 3126 3124 3125 3122 3111 3114 3113 3113 3115 3116 3117 3117 3117 3117 3117 3117 3117 3118 3118 3118 3118 3118 3117 3116 3115 3114 3113 3111 3109 3107 3105 3103 3102 3100 3098 3097 3095 3093 3091 3088 3087 3085 3084 3083 3081
3121 3123 3124 3122 3122 3119 3116 3118 3107 3107 3109 3109 3110 3112 3114 3115 3114 3113 3113 3113 3113 3113 3113 3114 3113 3113 3112 3112 3112 3110 3110 3110 3108 3105 3102 3101 3099 3097 3095 3092 3090 3089 3087 3084 3081 3079 3076 3075 3075
3117 3121 3122 3122 3120 3112 3110 3110 3103 3104 3104 3106 3107 3109 3110 3111 3110 3110 3111 3111 3111 3111 3110 3109 3109 3108 3108 3107 3105 3104 3104 3104 3103 3102 3100 3098 3095 3092 3091 3088 3084 3081 3080 3078 3075 3073 3071 3069 3066
3110 3114 3117 3119 3119 3109 3108 3101 3097 3099 3102 3102 3102 3103 3103 3104 3106 3106 3107 3108 3107 3106 3106 3103 3102 3100 3100 3100 3098 3096 3095 3093 3093 3091 3090 3088 3087 3085 3083 3081 3076 3074 3073 3070 3068 3065 3064 3062 3059
3106 3106 3112 3111 3110 3109 3101 3096 3095 3098 3100 3102 3101 3099 3099 3099 3098 3099 3100 3101 3101 3099 3098 3098 3096 3095 3093 3091 3088 3086 3084 3081 3079 3077 3074 3073 3072 3071 3071 3069 3065 3063 3060 3058 3055 3053 3053 3052 3050
3101 3102 3104 3108 3114 3112 3091 3088 3086 3090 3092 3096 3100 3102 3097 3093 3094 3095 3096 3095 3094 3093 3092 3090 3088 3086 3083 3080 3078 3076 3074 3071 3069 3067 3066 3064 3062 3060 3059 3058 3055 3051 3048 3044 3043 3040 3038 3037 3036
3097 3094 3097 3099 3097 3096 3094 3078 3077 3080 3086 3088 3091 3096 3099 3097 3092 3090 3089 3088 3087 3085 3083 3081 3079 3076 3073 3071 3069 3067 3066 3063 3061 3058 3055 3054 3052 3050 3048 3045 3043 3040 3037 3033 3032 3028 3026 3024 3023
3091 3087 3090 3091 3090 3088 3086 3073 3078 3079 3082 3083 3083 3086 3089 3089 3088 3085 3083 3081 3078 3074 3072 3069 3067 3066 3064 3061 3060 3058 3055 3053 3052 3050 3048 3046 3043 3040 3037 3034 3031 3028 3025 3021 3017 3015 3013 3009 3010